Simultaneous Nadir Overpasses (SNOs) Predictions

Prediction of SNOs between GOES-17 and AQUA Satellite Orbit:

Table of predicted SNOs for the next 14.0 days since TLE Epoch: 6/3/2022
Index Date Time (GOES-17) GOES-17 Lat,Lon AQUA Lat,Lon Distance(km) Time Diff (sec)
1 06/03/2022 22:57:03 -0.00,-137.19 -0.47,-139.26 236.14 80
2 06/05/2022 22:41:51 -0.00,-137.19 0.18,-136.22 110.67 80
3 06/06/2022 11:05:42 0.01,-137.20 0.87,-141.36 472.41 80
4 06/07/2022 22:29:19 -0.00,-137.19 0.84,-133.17 457.08 80
5 06/08/2022 10:53:09 0.01,-137.19 0.27,-138.30 126.12 80
6 06/10/2022 10:37:57 0.00,-137.18 -0.41,-135.25 219.60 80
7 06/10/2022 23:01:55 -0.01,-137.18 -0.73,-140.41 368.57 80
8 06/12/2022 22:49:23 -0.00,-137.15 -0.04,-137.37 24.12 80
9 06/14/2022 22:34:10 0.01,-137.12 0.60,-134.31 319.38 80
10 06/15/2022 10:57:59 -0.01,-137.12 0.50,-139.44 264.71 80
11 06/17/2022 10:42:47 -0.01,-137.08 -0.15,-136.39 78.11 80
